This is the latest recevied weather packets stored in our database for station/object WC0AA15WX. If no packets are shown the sender has not sent any weather packets the latest 10 day(s).
| Time | Temp. | Humidity | Pressure | Rain* | Wind** | Luminosity | Snow |
|---|---|---|---|---|---|---|---|
| 1777391619 | 12.22° C | 76% | 1021.7 hPa | 0 mm | - | - | - |
| 1777391018 | 11.67° C | 77% | 1022.4 hPa | 0 mm | - | - | - |
| 1777390418 | 11.67° C | 77% | 1022.4 hPa | 0 mm | - | - | - |
| 1777389818 | 11.11° C | 80% | 1023.4 hPa | 0 mm | - | - | - |
| 1777389218 | 10.56° C | 79% | 1023.4 hPa | 0 mm | - | - | - |
| 1777388618 | 10.56° C | 81% | 1022.7 hPa | 0 mm | - | - | - |
| 1777388018 | 10.56° C | 79% | 1022.7 hPa | 0 mm | - | - | - |
| 1777387418 | 10.56° C | 80% | 1022.7 hPa | 0 mm | - | - | - |
| 1777386818 | 10.56° C | 80% | 1022.7 hPa | 0 mm | - | - | - |
| 1777386218 | 10° C | 80% | 1023 hPa | 0 mm | - | - | - |
| 1777385618 | 10° C | 81% | 1023.4 hPa | 0 mm | - | - | - |
| 1777385018 | 10° C | 80% | 1023.4 hPa | 0 mm | - | - | - |
| 1777384418 | 10° C | 81% | 1023.7 hPa | 0 mm | - | - | - |
| 1777383817 | 9.44° C | 82% | 1023.7 hPa | 0 mm | - | - | - |
| 1777383218 | 9.44° C | 82% | 1023.7 hPa | 0 mm | - | - | - |
| 1777382817 | 9.44° C | 83% | 1023.7 hPa | 0 mm | - | - | - |
| 1777382617 | 9.44° C | 83% | 1023.7 hPa | 0 mm | - | - | - |
| 1777382017 | 9.44° C | 82% | 1023.7 hPa | 0 mm | - | - | - |
| 1777381417 | 8.89° C | 82% | 1023.4 hPa | 0 mm | - | - | - |
| 1777380817 | 8.89° C | 83% | 1023.4 hPa | 0 mm | - | - | - |
| 1777380217 | 8.89° C | 82% | 1023.4 hPa | 0 mm | - | - | - |
| 1777379617 | 8.89° C | 83% | 1023 hPa | 0 mm | - | - | - |
| 1777379017 | 8.89° C | 84% | 1022.8 hPa | 0 mm | - | - | - |
| 1777378417 | 8.33° C | 83% | 1022.7 hPa | 0 mm | - | - | - |
| 1777377817 | 8.33° C | 83% | 1022.4 hPa | 0 mm | - | - | - |
* Rain latest hour (hover to see other rain measurements)
** Current wind speed in m/s (hover to see current wind gust speed)